www.pogodaiklimat.ru

Погода и климат >> Архив погоды >> Норвегия >> Ona II


ПОГОДА в Ona II

  • Прогноз погоды в Ona II
  • Монитор погоды в Ona II
  • Климат города

АРХИВ ПОГОДЫ в Ona II

Время (UTC), дата Ветер
(напр.,м/с)
 
Видим.   Явления Облачность Т
(С)
Тd
(С)
f
(%)
Тe
(С)
Тes
(С)
Комфортность P
(гПа)
Po
(гПа)
Тmin
(С)
Tmax
(С)
R
(мм)
R24
(мм)
S
(см)
07 11.08 ЮЗ 8
{11}
н/о н/о +16.1 +10.0 67 +14 +14 1003.6 1001.9
08 11.08 ЮЗ 10
{13}
н/о н/о +16.5 +10.1 66 +15 +15 1003.2 1001.5
09 11.08 ЮЗ 10
{13}
н/о н/о +16.9 +10.3 65 +15 +15 1002.5 1000.8
10 11.08 ЮЗ 9
{11}
н/о н/о +17.5 +10.4 63 +16 +16 1002.1 1000.4
11 11.08 ЮЗ 13
{16}
н/о н/о +17.8 +8.9 56 +16 +16 1001.6 999.9
12 11.08 ЮЗ 11
{16}
н/о н/о +17.9 +9.3 57 +17 +17 1001.6 999.9
13 11.08 ЮЗ 12
{14}
н/о н/о +17.7 +8.6 55 +16 +16 1001.2 999.5
14 11.08 ЮЗ 10
{14}
н/о н/о +17.5 +9.4 59 +16 +16 1001.0 999.3
15 11.08 ЮЗ 10
{13}
н/о н/о +17.5 +8.9 57 +16 +16 1000.5 998.8
16 11.08 ЮЗ 11
{14}
н/о н/о +17.6 +9.3 58 +16 +16 1000.0 998.3
17 11.08 ЮЗ 11
{14}
н/о н/о +17.4 +10.1 62 +16 +16 999.6 997.9
18 11.08 ЮЗ 8
{14}
н/о н/о +17.2 +10.3 64 +16 +16 999.1 997.4 +18.2
19 11.08 ЮЗ 11
{14}
н/о н/о +17.2 +9.9 62 +16 +16 998.6 996.9
20 11.08 ЮЗ 9
{12}
н/о н/о +17.1 +9.8 62 +16 +16 998.7 997.0
21 11.08 ЮЗ 10
{13}
н/о н/о +16.5 +11.0 70 +15 +15 998.6 996.9
22 11.08 ЮЗ 11
{14}
н/о н/о +16.7 +11.0 69 +15 +15 998.6 996.9
23 11.08 ЮЗ 11
{13}
н/о н/о +14.8 +12.3 85 +12 +12 998.2 996.5
00 12.08 ЮЗ 11
{15}
н/о н/о +14.0 +12.6 91 +11 +11 998.5 996.8
01 12.08 ЮЗ 12
{17}
н/о н/о +14.8 +12.5 86 +12 +12 998.6 996.9
02 12.08 ЮЗ 12
{18}
н/о н/о +15.1 +11.9 81 +12 +12 998.2 996.5
03 12.08 З 10
{19}
н/о н/о +12.9 +11.3 90 +10 +10 999.3 997.6
04 12.08 С 8
{11}
н/о н/о +11.8 +10.6 92 +8 +8 1000.3 998.6
05 12.08 СЗ 7
{10}
н/о н/о +11.4 +9.7 89 +8 +8 1001.3 999.6
06 12.08 СЗ 6
{19}
н/о н/о +11.6 +9.5 87 +9 +9 1002.0 1000.3 +11.2 +17.3
07 12.08 СЗ 5
{7}
н/о н/о +11.9 +10.0 88 +9 +9 1002.8 1001.1
08 12.08 З 4 н/о н/о +12.6 +9.2 80 +11 +11 1003.4 1001.7
09 12.08 З 5
{7}
н/о н/о +13.0 +8.1 72 +11 +11 1004.3 1002.6
10 12.08 З 5
{7}
н/о н/о +13.3 +9.0 75 +11 +11 1005.3 1003.6
11 12.08 СЗ 7
{8}
н/о н/о +13.4 +9.7 78 +11 +11 1006.0 1004.3
12 12.08 СЗ 7
{8}
н/о н/о +13.3 +8.2 71 +11 +11 1006.6 1004.9
13 12.08 СЗ 8
{9}
н/о н/о +14.0 +8.4 69 +12 +12 1006.9 1005.2
14 12.08 СЗ 7
{9}
н/о н/о +14.2 +7.7 65 +12 +12 1007.2 1005.5
15 12.08 СЗ 6
{9}
н/о н/о +13.7 +6.8 63 +12 +12 1007.7 1006.0
16 12.08 СЗ 6
{8}
н/о н/о +13.5 +6.6 63 +11 +11 1007.9 1006.2
17 12.08 СЗ 6
{8}
н/о н/о +13.0 +6.4 64 +11 +11 1007.9 1006.2
18 12.08 З 5
{9}
н/о н/о +12.8 +5.3 60 +11 +11 1008.1 1006.4 +11.5 +14.5
19 12.08 З 6
{8}
н/о н/о +12.5 +6.1 65 +10 +10 1008.0 1006.3
20 12.08 З 7
{9}
н/о н/о +12.2 +6.3 67 +9 +9 1008.2 1006.5
21 12.08 З 7
{9}
н/о н/о +12.2 +5.6 64 +9 +9 1008.3 1006.6
22 12.08 З 8
{9}
н/о н/о +12.2 +6.1 66 +9 +9 1008.0 1006.3
23 12.08 З 10
{12}
н/о н/о +11.8 +6.5 70 +8 +8 1007.7 1006.0
00 13.08 З 9
{12}
н/о н/о +12.0 +6.1 67 +9 +9 1007.7 1006.0
01 13.08 З 10
{12}
н/о н/о +12.0 +5.2 63 +9 +9 1007.6 1005.9
02 13.08 З 10
{13}
н/о н/о +12.2 +6.7 69 +9 +9 1007.5 1005.8
03 13.08 З 10
{12}
н/о н/о +12.1 +6.0 66 +9 +9 1007.2 1005.5
04 13.08 З 11
{13}
н/о н/о +12.0 +6.7 70 +8 +8 1007.1 1005.4
05 13.08 ЮЗ 11
{19}
н/о н/о +11.4 +7.5 77 +7 +7 1007.1 1005.4
06 13.08 ЮЗ 14
{19}
н/о н/о +11.8 +7.1 73 +7 +7 1006.7 1005.0 +10.7 +12.9
07 13.08 З 13
{20}
н/о н/о +11.2 +7.5 78 +7 +7 1007.3 1005.6
08 13.08 ЮЗ 13
{19}
н/о н/о +11.7 +7.4 75 +7 +7 1007.7 1006.0
09 13.08 ЮЗ 16
{19}
н/о н/о +12.5 +5.7 63 +8 +8 1007.2 1005.5
10 13.08 ЮЗ 17
{22}
н/о н/о +12.5 +7.4 71 +8 +8 1007.7 1006.0
11 13.08 ЮЗ 18
{22}
н/о н/о +11.3 +7.6 78 +6 +6 1008.0 1006.3
12 13.08 З 18
{22}
н/о н/о +11.3 +8.5 83 +6 +6 1008.1 1006.4
13 13.08 З 17
{21}
н/о н/о +12.9 +7.2 68 +9 +9 1008.6 1006.9
14 13.08 З 15
{19}
н/о н/о +13.2 +6.8 65 +9 +9 1009.4 1007.7
15 13.08 З 15
{20}
н/о н/о +12.4 +7.9 74 +8 +8 1010.0 1008.3
16 13.08 З 14
{21}
н/о н/о +13.0 +7.0 67 +9 +9 1010.4 1008.7
17 13.08 З 17
{19}
н/о н/о +13.2 +6.6 64 +9 +9 1010.8 1009.1
18 13.08 З 17
{21}
н/о н/о +13.3 +6.2 62 +9 +9 1011.1 1009.4 +9.8 +13.4
19 13.08 З 16
{20}
н/о н/о +13.3 +7.1 66 +9 +9 1012.1 1010.4
20 13.08 З 15
{19}
н/о н/о +13.2 +6.6 64 +9 +9 1012.2 1010.5
21 13.08 ЮЗ 15
{18}
н/о н/о +13.1 +7.3 68 +9 +9 1012.9 1011.2
22 13.08 ЮЗ 15
{18}
н/о н/о +13.1 +8.0 71 +9 +9 1013.8 1012.1
23 13.08 ЮЗ 14
{18}
н/о н/о +13.0 +7.3 68 +9 +9 1014.0 1012.3
00 14.08 ЮЗ 13
{20}
н/о н/о +12.9 +7.4 69 +9 +9 1014.6 1012.9
01 14.08 ЮЗ 13
{15}
н/о н/о +12.8 +6.6 66 +9 +9 1014.8 1013.1
02 14.08 ЮЗ 11
{14}
н/о н/о +12.8 +6.8 67 +9 +9 1015.5 1013.7
03 14.08 ЮЗ 11
{13}
н/о н/о +12.9 +7.2 68 +10 +10 1015.6 1013.8
04 14.08 ЮЗ 9
{12}
н/о н/о +11.8 +8.1 78 +8 +8 1016.2 1014.4
05 14.08 ЮЗ 12
{15}
н/о н/о +11.3 +8.0 80 +7 +7 1016.3 1014.5
06 14.08 ЮЗ 9
{15}
н/о н/о +11.2 +8.3 82 +7 +7 1017.1 1015.3 +11.0 +13.3
07 14.08 ЮЗ 11
{13}
н/о н/о +11.2 +8.1 81 +7 +7 1017.6 1015.8
08 14.08 ЮЗ 9
{13}
н/о н/о +11.5 +8.2 80 +8 +8 1018.2 1016.4
09 14.08 ЮЗ 8
{12}
н/о н/о +11.6 +8.3 80 +8 +8 1018.8 1017.0
10 14.08 ЮЗ 12
{16}
н/о н/о +11.9 +7.6 75 +8 +8 1018.6 1016.8
11 14.08 ЮЗ 9
{15}
н/о н/о +13.1 +8.0 71 +10 +10 1019.5 1017.7
12 14.08 ЮЗ 9
{16}
н/о н/о +13.7 +7.0 64 +11 +11 1019.6 1017.8
13 14.08 ЮЗ 9
{15}
н/о н/о +13.4 +7.4 67 +11 +11 1020.0 1018.2
14 14.08 З 9
{12}
н/о н/о +13.3 +8.4 72 +10 +10 1020.3 1018.5
15 14.08 З 8
{11}
н/о н/о +13.5 +8.6 72 +11 +11 1020.3 1018.5
16 14.08 ЮЗ 6
{8}
н/о н/о +13.8 +7.6 66 +12 +12 1020.3 1018.5
17 14.08 ЮЗ 4
{6}
н/о н/о +13.9 +7.7 66 +13 +13 1020.0 1018.2
18 14.08 ЮЗ 3
{15}
н/о н/о +13.6 +8.0 69 +13 +13 1020.1 1018.3 +11.1 +14.1
19 14.08 З 2
{6}
н/о н/о +13.3 +7.8 69 +13 +13 1020.2 1018.4
20 14.08 ЮВ 1
{3}
н/о н/о +13.2 +8.1 71 +13 +13 1020.1 1018.3
21 14.08 В 4
{5}
н/о н/о +12.9 +8.4 74 +11 +11 1019.9 1018.1
22 14.08 В 4
{5}
н/о н/о +13.1 +8.2 72 +11 +11 1019.8 1018.0
23 14.08 В 4
{6}
н/о н/о +13.2 +8.1 71 +12 +12 1019.3 1017.5
00 15.08 В 5
{6}
н/о н/о +13.0 +7.9 71 +11 +11 1018.8 1017.0
01 15.08 В 5
{6}
н/о н/о +12.9 +8.6 75 +11 +11 1018.0 1016.2
02 15.08 В 5
{6}
н/о н/о +12.8 +8.9 77 +11 +11 1017.6 1015.8
03 15.08 В 6
{8}
н/о н/о +13.0 +9.1 77 +11 +11 1016.9 1015.1
04 15.08 В 6
{8}
н/о н/о +12.8 +9.1 78 +10 +10 1016.4 1014.6
05 15.08 В 4
{8}
н/о н/о +12.8 +9.4 80 +11 +11 1016.1 1014.3
06 15.08 Ю 5
{9}
н/о н/о +13.6 +9.8 78 +12 +12 1015.7 1014.0 +12.7 +13.9
07 15.08 ЮВ 5
{7}
н/о н/о +13.9 +9.6 75 +12 +12 1015.4 1013.7
08 15.08 ЮВ 4
{7}
н/о н/о +14.1 +9.9 76 +13 +13 1015.2 1013.5
09 15.08 ЮВ 5
{7}
н/о н/о +13.9 +10.3 79 +12 +12 1014.7 1013.0
10 15.08 В 6
{8}
н/о н/о +14.0 +9.8 76 +12 +12 1014.0 1012.3
11 15.08 В 4
{6}
н/о н/о +14.8 +10.0 73 +14 +14 1013.4 1011.7
12 15.08 В 4
{8}
н/о н/о +15.1 +10.1 72 +14 +14 1013.0 1011.3
13 15.08 В 4
{5}
н/о н/о +15.0 +10.0 72 +14 +14 1012.4 1010.7
14 15.08 В 4
{5}
н/о н/о +15.0 +10.8 76 +14 +14 1011.9 1010.2
15 15.08 В 3
{4}
н/о н/о +14.9 +11.7 81 +14 +14 1011.4 1009.7
16 15.08 В 4
{5}
н/о н/о +14.8 +11.4 80 +14 +14 1010.3 1008.6
17 15.08 В 6
{8}
н/о н/о +15.6 +12.0 79 +14 +14 1009.1 1007.4
18 15.08 В 6
{9}
н/о н/о +15.4 +11.6 78 +14 +14 1008.4 1006.7 +13.4 +15.7
19 15.08 В 7
{8}
н/о н/о +16.1 +10.6 70 +15 +15 1008.0 1006.3
20 15.08 З 11
{13}
н/о н/о +15.0 +12.7 86 +12 +12 1008.9 1007.2
21 15.08 З 11
{15}
н/о н/о +14.6 +11.8 83 +12 +12 1009.3 1007.6
22 15.08 З 11
{14}
н/о н/о +14.4 +10.6 78 +12 +12 1009.5 1007.8
23 15.08 ЮЗ 9
{13}
н/о н/о +14.4 +10.8 79 +12 +12 1010.3 1008.6
00 16.08 З 7
{15}
н/о н/о +14.5 +10.9 79 +12 +12 1010.3 1008.6
01 16.08 ЮЗ 6
{7}
н/о н/о +14.4 +11.0 80 +13 +13 1010.4 1008.7
02 16.08 ЮЗ 8
{9}
н/о н/о +14.5 +10.7 78 +12 +12 1010.0 1008.3
03 16.08 ЮЗ 8
{11}
н/о н/о +14.5 +10.9 79 +12 +12 1009.9 1008.2
04 16.08 З 11
{12}
н/о н/о +14.1 +11.1 82 +11 +11 1009.9 1008.2
05 16.08 ЮЗ 10
{12}
н/о н/о +14.2 +10.6 79 +11 +11 1010.1 1008.4
06 16.08 ЮЗ 10
{12}
н/о н/о +14.3 +10.1 76 +12 +12 1010.3 1008.6 +14.0 +16.8
07 16.08 ЮЗ 7
{11}
н/о н/о +14.7 +9.5 71 +13 +13 1010.8 1009.1
08 16.08 ЮЗ 5
{9}
н/о н/о +15.2 +9.6 69 +14 +14 1011.3 1009.6
09 16.08 ЮЗ 9
{11}
н/о н/о +15.0 +9.8 71 +13 +13 1011.5 1009.8
10 16.08 ЮЗ 8
{14}
н/о н/о +14.1 +9.9 76 +12 +12 1011.8 1010.1
11 16.08 ЮЗ 10
{11}
н/о н/о +14.7 +9.9 73 +12 +12 1012.1 1010.4
12 16.08 ЮЗ 11
{14}
н/о н/о +15.3 +10.3 72 +13 +13 1012.5 1010.8
13 16.08 ЮЗ 11
{13}
н/о н/о +15.5 +10.1 70 +13 +13 1012.7 1011.0
14 16.08 З 9
{12}
н/о н/о +14.9 +11.1 78 +13 +13 1013.0 1011.3
15 16.08 ЮЗ 9
{12}
н/о н/о +15.2 +11.0 76 +13 +13 1013.4 1011.7
16 16.08 ЮЗ 13
{15}
н/о н/о +14.9 +11.5 80 +12 +12 1013.2 1011.5
17 16.08 ЮЗ 10
{15}
н/о н/о +14.8 +11.2 79 +12 +12 1013.5 1011.8
18 16.08 ЮЗ 10
{15}
н/о н/о +14.7 +11.7 82 +12 +12 1013.8 1012.1 +13.5 +15.6
19 16.08 ЮЗ 8
{10}
н/о н/о +14.5 +11.7 83 +12 +12 1013.9 1012.2
20 16.08 ЮЗ 5
{9}
н/о н/о +14.6 +11.8 83 +13 +13 1014.2 1012.5
21 16.08 ЮВ 2
{6}
н/о н/о +14.1 +11.6 85 +14 +14 1014.1 1012.4
22 16.08 В 4
{5}
н/о н/о +13.9 +11.4 85 +12 +12 1014.0 1012.3
23 16.08 В 5
{6}
н/о н/о +13.6 +11.3 86 +12 +12 1013.7 1012.0
00 17.08 В 5
{10}
н/о н/о +13.8 +10.8 82 +12 +12 1013.4 1011.7
01 17.08 ЮВ 5
{6}
н/о н/о +14.2 +11.2 82 +12 +12 1013.2 1011.5
02 17.08 ЮВ 5
{5}
н/о н/о +14.3 +10.7 79 +13 +13 1012.7 1011.0
03 17.08 ЮВ 4
{5}
н/о н/о +14.7 +10.1 74 +14 +14 1012.2 1010.5
04 17.08 ЮВ 4
{5}
н/о н/о +14.6 +10.8 78 +13 +13 1011.7 1010.0
05 17.08 ЮВ 6
{8}
н/о н/о +15.0 +10.6 75 +13 +13 1011.2 1009.5
06 17.08 ЮВ 8
{10}
н/о н/о +15.4 +9.1 66 +14 +14 1010.7 1009.0 +13.6 +15.4
07 17.08 ЮВ 7
{10}
н/о н/о +15.4 +9.1 66 +14 +14 1010.5 1008.8
08 17.08 ЮВ 7
{9}
н/о н/о +15.2 +10.4 73 +13 +13 1010.4 1008.7
09 17.08 ЮВ 7
{9}
н/о н/о +15.6 +9.1 65 +14 +14 1010.0 1008.3
10 17.08 ЮВ 6
{8}
н/о н/о +16.3 +8.8 61 +15 +15 1009.7 1008.0
11 17.08 В 8
{9}
н/о н/о +16.8 +9.0 60 +15 +15 1009.1 1007.4
12 17.08 В 6
{10}
н/о н/о +17.8 +8.7 55 +17 +17 1008.6 1006.9
13 17.08 В 7
{8}
н/о н/о +17.7 +9.6 59 +17 +17 1008.1 1006.4
14 17.08 ЮВ 6
{8}
н/о н/о +17.6 +10.3 62 +17 +17 1007.6 1005.9
15 17.08 ЮВ 8
{9}
н/о н/о +17.7 +9.1 57 +17 +17 1006.7 1005.0
16 17.08 ЮВ 4
{9}
н/о н/о +17.2 +10.1 63 +17 +17 1006.8 1005.1
17 17.08 З 8
{11}
н/о н/о +15.1 +12.1 82 +13 +13 1006.8 1005.1
18 17.08 СЗ 5
{11}
н/о н/о +14.2 +12.1 87 +12 +12 1006.6 1004.9 +14.2 +18.3
19 17.08 С 3
{5}
н/о н/о +13.9 +12.1 89 +13 +13 1006.3 1004.6
20 17.08 СВ 4
{5}
н/о н/о +13.8 +12.0 89 +12 +12 1005.7 1004.0
21 17.08 СВ 4
{6}
н/о н/о +13.6 +11.8 89 +12 +12 1005.1 1003.4
22 17.08 СВ 2
{5}
н/о н/о +14.1 +12.5 90 +14 +14 1005.3 1003.6
23 17.08 СВ 2
{4}
н/о н/о +14.2 +12.6 90 +14 +14 1005.2 1003.5
00 18.08 СВ 2
{6}
н/о н/о +14.3 +12.7 90 +14 +14 1005.2 1003.5
01 18.08 В 2
{2}
н/о н/о +14.4 +13.0 91 +14 +14 1005.2 1003.5
02 18.08 СВ 1
{2}
н/о н/о +14.4 +13.1 92 +15 +15 1005.5 1003.8
03 18.08 СЗ 1
{2}
н/о н/о +14.3 +12.9 91 +15 +15 1005.4 1003.7
04 18.08 С 2
{4}
н/о н/о +14.5 +12.9 90 +14 +14 1005.5 1003.8
05 18.08 С 1
{2}
н/о н/о +14.5 +12.5 88 +15 +15 1005.8 1004.1
06 18.08 СВ 4
{4}
н/о н/о +14.9 +12.6 86 +14 +14 1005.6 1003.9 +13.6 +14.9

 

Местоположение метеостанции Ona II (Норвегия): широта 62.86 долгота 6.54 высота над уровнем моря 13 м.

В архиве по умолчанию представлена погода в Ona II за последнюю неделю. Архивные данные за месяц целиком и за предыдущие месяцы, начиная с января 2011 года, Вы можете получить, выбрав интересующий диапазон дат из раскрывающегося списка и нажав кнопку "Ввод!".

Внимание! Время в таблицах - всемирное. Для получения местного времени необходимо прибавить поправку, которая в Ona II равна 1 ч.

Смотрите также архив погоды в соседних городах и на ближайших метеорологических станциях:

Погода в Rekdal (Норвегия) (26 км)
Погода в Molde Luhthavn (Норвегия) (39 км)
Погода в Alesund Lufthavn (Норвегия) (39 км)
Погода в Lebergsfjellet (Норвегия) (41 км)
Погода в Alesund IV (Норвегия) (47 км)
Погода в Kristiansund Lufthavn (Норвегия) (70 км)
Погода в Mannen (Норвегия) (77 км)
Погода в Orsta-Volda Lufthavn (Норвегия) (79 км)
Погода в Marstein (Норвегия) (81 км)
Погода в Tafjord (Норвегия) (83 км)

Пояснения к столбцам:

Ветер - указаны скорость ветра в м/с - средняя за 10 мин, порывы в срок и между сроками (в фигурных скобках) и направление, откуда дует ветер: С - северный, СВ - северо-восточный, В - восточный, ЮВ - юго-восточный, Ю - южный, ЮЗ - юго-западный, З - западный, СЗ - северо-западный.
Видимость - горизонтальная дальность видимости в метрах или километрах. При видимости от 1 до 10 км при отсутствии осадков обычно наблюдается дымка, при ухудшении видимости до 1 км и менее - туман. В сухую погоду видимость может ухудшаться дымом, пылью или мглою.
Явления - указаны атмосферные явления, наблюдавшиеся в срок или в последний час перед сроком; фигурными скобками обозначены явления, наблюдавшиеся между сроками (за 1-3 часа до срока); квадратными скобками обозначены град или гололедные отложения с указанием их диаметра в мм.
Облачность - указаны через наклонную черту общая и нижняя облачность в баллах и высота нижней границы облаков в метрах; квадратными скобками обозначены формы облаков: Ci - перистые, Cs - перисто-слоистые, Cc - перисто-кучевые, Ac - высококучевые, As - высокослоистые, Sc - слоисто-кучевые, Ns - слоисто-дождевые, Cu - кучевые, Cb - кучево-дождевые. Подробнее классификацию облаков см. в Атласе облаков (PDF).
T - Температура воздуха - температура, измеренная на высоте 2 м над землей.
Td - Температура точки росы - температура, при понижении до которой содержащийся в воздухе водяной пар достигнет насыщения.
f - Относительная влажность воздуха - влажноcть воздуха, измеренная на высоте 2 м над землей.
Te - Эффективная температура - температура, которую ощущает одетый по сезону человек в тени. Характеристика душности погоды. При расчете учитывается влияние влажности воздуха и скорости ветра на теплоощущения человека.
Tes - Эффективная температура на солнце - температура, которую ощущает человек, с поправкой на солнечный нагрев. Характеристика знойности погоды. Зависит от высоты солнца над горизонтом, облачности и скорости ветра. Ночью, в пасмурную погоду, а также при ветре 12 м/с и более поправка равна нулю.
P - Атмосферное давление - приведенное к уровню моря атмосферное давление.
Po - Атмосферное давление - измеренное на уровне метеостанции атмосферное давление.
Tmin - Минимальная температура - минимум температуры воздуха на высоте 2 м над землей.
Tmax - Максимальная температура - максимум температуры воздуха на высоте 2 м над землей.
R - Количество осадков - Количество выпавших осадков за период времени, мм. При наведении курсора мыши на число - период времени, за который выпало указанное количество осадков.
R24 - Количество осадков - Количество выпавших осадков за 24 часа, мм.
S - Снежный покров - Высота снежного покрова, см. При наведении курсора мыши на число - состояние снежного покрова и степень покрытия местности в баллах.